Weather Roundup
Issued by NWS Chicago, IL

Home | Current Version | Previous Version | Graphics & Text | Print | Product List | Glossary On
Versions: 1 2 3 4 5 6 7 8 9 10 11 12 13 14 15 16 17 18 19 20 21 22 23 24 25 26 27 28 29 30 31 32 33 34 35 36 37 38 39 40 41 42 43 44 45 46 47 48 49 50
000
NZUS59 KLOT 211303
HRRLOT

CHICAGO AREA WEATHER ROUNDUP
NATIONAL WEATHER SERVICE CHICAGO/ROMEOVILLE IL
700 AM CST SAT JAN 21 2017

NOTE: "FAIR" INDICATES FEW OR NO CLOUDS BELOW 12,000 FEET WITH NO
SIGNIFICANT WEATHER AND/OR OBSTRUCTIONS TO VISIBILITY.

* THESE STATIONS ARE NOT UNDER NWS QUALITY CONTROL. THEY ALSO MAY NOT
  REPORT WEATHER SUCH AS PRECIPITATION OR FOG.

ILZ005-006-012>014-019>023-211400-
NORTHEAST ILLINOIS

CITY           SKY/WX    TMP DP  RH WIND       PRES   REMARKS
OHARE          CLOUDY    48  47  96 S9        29.52F FOG
MIDWAY         MOCLDY    48  47  96 S10       29.54S FOG
AURORA         FOG       47  45  93 SE10      29.51S VSB 1/4
LANSING*       MOCLDY    47  47 100 SE7       29.56S FOG
JOLIET*        FOG       43  43 100 E6        29.53S VSB<1/4
WAUKEGAN       FOG       41  40  96 SE3       29.52F VSB<1/4
DUPAGE AIRPORT CLOUDY    48  45  89 S10       29.51S FOG
WHEELING       CLOUDY    47  46  97 S7        29.53F FOG
KANKAKEE*      CLEAR     48  47  97 S10       29.56S
MORRIS*        FOG       44  44  98 SE7       29.51S VSB 1/4
NORTHERLY ISL    N/A     40  39  97 SE3         N/A
$$

WIZ051-052-058>065-066-070>072-211400-
SOUTHEAST WISCONSIN

CITY           SKY/WX    TMP DP  RH WIND       PRES   REMARKS
MILWAUKEE      FOG       41  41 100 S3        29.52F VSB 1/8
KENOSHA*       FOG       42  42 100 SE3       29.52F VSB 1/4
RACINE*        FOG       42  40  92 S9        29.53F VSB 1/4
WAUKESHA       FOG       36  36 100 E5        29.53S VSB 1/4
$$

INZ001>003-010>013-019-020-211400-
NORTHWEST INDIANA

CITY           SKY/WX    TMP DP  RH WIND       PRES   REMARKS
GARY*          FOG       50  48  93 SE8       29.56S VSB 1
MICHIGAN CITY* NOT AVBL
RENSSELAER*    NOT AVBL
VALPARAISO     CLOUDY    50  49  96 S8        29.59R FOG
$$

LMZ740>746-211400-
SOUTHERN LAKE MICHIGAN

STATION/POSITION TIME  SKY/WX   TEMP WIND        PRES    VSBY
                                AIR  DIR/SP/G
                 (UTC)          (F)  (DEG/KT/KT) (MB)    (MI)
HARRISON CRIB    1240            45  160/ 12/ 14   N/A
BURNHAM HARBOR   1300            42  170/  2/  4   N/A
CALUMET HARBOR   1230            49  150/  8/ 10 1000.0F
BURNS HARBOR     1240            51  170/ 11/ 17 1002.0S
MICHIGAN CITY    NOT AVBL
$$

ABBREVIATIONS USED IN REMARKS
   TC - TEMPERATURE IN CELSIUS
  WCI - WIND CHILL INDEX
   HX - HEAT INDEX
  VSB - VISIBILITY
$$



USA.gov is the U.S. government's official web portal to all federal, state and local government web resources and services.